Location: Beau Repaire
(50.6144°N, 4.0551°E)
Time: 07:29:48
(UTC+00:00)

Cosmos 2297 Rocket - Pass Details

Date: 15 May 2026
Orbit: 839 x 842 km, 71.0° (Epoch: 5 June)

Event Time Altitude Azimuth Distance (km) Brightness Sun altitude
Exits shadow 21:46:21 11° 103° (ESE) 2,381 4.2 -16.0°
Maximum altitude 21:47:08 11° 95° (E) 2,360 4.2 -16.0°
Drops below altitude 10° 21:48:49 10° 77° (ENE) 2,460 4.5 -16.2°
Sets 21:53:11 0° 45° (NE) 3,403 5.6 -16.5°
